Meteo Giornale » Osservazioni meteo Italia » Roma-Ciampino

ore: 00:50 - Osservazioni Meteo Roma-Ciampino
Lat. 41° 47' N Lon. 12° 35' E Alt. 129 metri s.l.m.

sereno Europe/Rome

6 °C

Sereno

Temp. 24 Ore

3 °C

15 °C

Nord

3.7 Km/h

Dew point 4 °C

Umidità 86 %

Visibilità  10 Km

Il sole sorge alle ore 06:53

Il sole tramonta alle ore 17:52

Data e Ora Cielo e Fenomeni T °C DP °C Um. % Pres. hPa Vis. km Vento km/h
Oggi h: 00:50 sereno Sereno 6 4 86 1026 10 N 3.7
Oggi h: 00:20 sereno Sereno 6 4 86 1026 10 N 5.5
Ieri h: 23:50 sereno Sereno 7 4 81 1026 10 N 3.7
Ieri h: 23:20 sereno Sereno 7 4 81 1026 10 N 3.7
Ieri h: 22:50 sereno Sereno 7 5 87 1026 7 N 5.5
Ieri h: 22:20 sereno Sereno 7 5 87 1027 7 E/SE 7.4
Ieri h: 21:50 sereno Sereno 8 6 87 1027 7 E 7.4
Ieri h: 21:20 sereno Sereno 8 6 87 1027 7 E 7.4
Ieri h: 20:50 sereno Sereno 8 6 87 1027 8 E/SE 7.4
Ieri h: 20:20 sereno Sereno 8 6 87 1026 8 E/SE 9.3
Ieri h: 19:50 sereno Sereno 8 6 87 1026 10 E/SE 9.3
Ieri h: 19:20 sereno Sereno 9 6 81 1027 10 N 5.5
Ieri h: 18:50 sereno Sereno 10 7 81 1027 10 N 5.5
Ieri h: 18:20 sereno Sereno 11 7 76 1027 10 N 3.7
Ieri h: 17:50 sereno Sereno 12 7 71 1027 10 N 5.5
Ieri h: 17:20 sereno Sereno 12 6 66 1026 10 SO 7.4
Ieri h: 16:50 sereno Sereno 13 6 62 1026 10 O 13
Ieri h: 16:20 sereno Sereno 13 6 62 1026 10 O 13
Ieri h: 15:50 sereno Sereno 14 6 58 1026 10 O 13
Ieri h: 15:20 sereno Sereno 14 5 54 1026 10 O 13
Ieri h: 14:50 sereno Sereno 15 5 51 1027 10 N 5.5
Ieri h: 14:20 sereno Sereno 14 3 47 1027 10 O/NO 9.3
Ieri h: 13:50 sereno Sereno 14 4 50 1027 10 O/NO 7.4
Ieri h: 13:20 sereno Sereno 14 4 50 1027 10 NO 7.4
Ieri h: 12:50 sereno Sereno 13 4 54 1027 10 O 7.4
Ieri h: 12:20 sereno Sereno 13 4 54 1027 10 N 3.7
Ieri h: 11:50 sereno Sereno 12 4 57 1028 10 NO 7.4
Ieri h: 11:20 sereno Sereno 11 4 61 1028 10 N 3.7
Ieri h: 10:50 sereno Sereno 10 4 66 1028 10 N 5.5
Ieri h: 10:20 sereno Sereno 10 4 66 1028 9 N 3.7
Ieri h: 09:50 sereno Sereno 8 4 75 1027 9 N 5.5
Ieri h: 09:20 sereno Sereno 6 3 81 1027 10 N/NE 11.1
Ieri h: 08:50 sereno Sereno 5 3 86 1027 10 N 5.5
Ieri h: 08:20 sereno Sereno 4 2 86 1027 10 N 7.4
Ieri h: 07:50 sereno Sereno 4 2 86 1027 10 N 3.7
Ieri h: 07:20 sereno Sereno 4 2 86 1026 7 N 7.4
Ieri h: 06:50 sereno Sereno 3 1 86 1026 10 N/NE 7.4
Ieri h: 06:20 sereno Sereno 5 3 86 1026 10 N 5.5
Ieri h: 05:50 sereno Sereno 5 3 86 1026 10 N 3.7
Ieri h: 05:20 sereno Sereno 5 3 86 1026 10 NE 9.3
Ieri h: 04:50 sereno Sereno 4 2 86 1026 10 N 5.5
Ieri h: 04:20 sereno Sereno 4 2 86 1026 10 N 3.7
Ieri h: 03:50 sereno Sereno 4 3 93 1026 10 N 3.7
Ieri h: 03:20 sereno Sereno 3 2 93 1026 10 N 5.5
Ieri h: 02:50 sereno Sereno 4 3 93 1026 10 N 3.7
Ieri h: 02:20 sereno Sereno 5 3 86 1026 10 N 3.7
Ieri h: 01:50 sereno Sereno 5 3 86 1026 10 N 5.5
Ieri h: 01:20 sereno Sereno 5 3 86 1026 10 N 5.5
Ieri h: 00:50 sereno Sereno 5 3 86 1026 10 E 7.4